Location: St. Louis
(38.6270°N, 90.1994°W)
Time: 22:08:12
(UTC-05:00)

deb Kosmos-468 - Pass Details

Date: 13 August 2022
Orbit: 584 x 585 km, 74.0° (Epoch: 30 September)

Event Time Altitude Azimuth Distance (km) Brightness Sun altitude
Rises 00:51:16 0° 353° (N) 2,816 ? -36.6°
Reaches altitude 10° 00:53:48 10° 6° (N) 1,912 ? -36.6°
Enters shadow 00:54:28 13° 12° (NNE) 1,696 ? -36.7°
